Location: Yellowknife
(62.4500°N, 114.3500°W)
Time: 19:31:50
(UTC-07:00)

ISS - Visible Passes

Search period start: 24 January 2020 00:00
Search period end: 03 February 2020 00:00
Orbit: 415 x 423 km, 51.6° (Epoch: 25 January)

Date Brightness Start Highest point End Pass type
(mag) Time Alt. Az. Time Alt. Az. Time Alt. Az.
26 Jan -0.9 19:49:15 10° SSW 19:49:43 11° SSW 19:49:43 11° SSW visible
27 Jan -1.3 19:02:09 10° SSW 19:03:42 13° S 19:04:08 12° SSE visible
28 Jan -1.1 18:15:14 10° S 18:16:25 11° SSE 18:17:34 10° SE visible
28 Jan -1.1 19:50:26 10° SW 19:51:30 13° SSW 19:51:30 13° SSW visible
29 Jan -1.3 19:03:05 10° SSW 19:04:53 14° S 19:05:54 12° SSE visible
30 Jan -1.2 18:15:49 10° SSW 18:17:34 13° S 18:19:19 10° SE visible
30 Jan -1.0 19:52:03 10° SW 19:53:16 12° SSW 19:53:16 12° SSW visible
31 Jan -1.1 17:28:41 10° SSW 17:30:14 13° S 17:31:47 10° SE visible
31 Jan -1.1 19:04:25 10° SW 19:06:03 13° S 19:07:41 10° SSE visible
01 Feb -1.1 18:16:55 10° SW 18:18:42 14° S 18:20:29 10° SSE visible
02 Feb -1.0 17:29:32 10° SSW 17:31:21 14° S 17:33:10 10° SSE visible
02 Feb -0.8 19:06:29 10° SSW 19:07:07 10° SSW 19:07:46 10° S visible
